sat.trackr.live / text

‹ back to catalog

STARLINK-5670

NORAD 55341 · 2023-013L

PAYLOAD ACTIVE UNKNOWN

§ Identity

Operator
Country
US
Launch date
2023-01-26
Launch site
AFETR
Launch vehicle
Mass (kg)
RCS (m²)

Purposes: comms

External: N2YO · Heavens-Above · Gunter

§ Orbital elements

Epoch: 2026-09-20T08:54:01.081440Z

Period
94.27 min
Inclination
43.0034°
Eccentricity
0.0001100
Mean motion
15.27574463 rev/d
Perigee alt
482.3 km
Apogee alt
483.8 km
Semi-major
6,861.2 km
B*
-8.2373e-6
RAAN
284.2732°
Arg perigee
294.5371°
Mean anomaly
65.5366°
Rev number
20,144

§ Raw data

STARLINK-56701 55341U 23013L   26263.37084585 -.00000489  00000+0 -82373-5 0  99962 55341  43.0034 284.2732 0001100 294.5371  65.5366 15.27574463201441

JSON: /api/v1/satellites/55341 · /tle

For live sub-satellite position, see the globe view (requires WebGL).

§ Visibility from observer

Set your observer location to see the next 7 days of passes ≥ 10°. The values pass through the URL so the page stays shareable.

No JS? Fill the form by hand. The geolocation button needs JavaScript.